sat.trackr.live / text

‹ back to catalog

ONEWEB-0655

NORAD 54677 · 2022-166AM

PAYLOAD ACTIVE UNKNOWN

§ Identity

Operator
Country
UK
Launch date
2022-12-08
Launch site
AFETR
Launch vehicle
Mass (kg)
RCS (m²)

Purposes: comms

External: N2YO · Heavens-Above · Gunter

§ Orbital elements

Epoch: 2026-05-24T20:05:09.702240Z

Period
108.94 min
Inclination
87.9251°
Eccentricity
0.0002010
Mean motion
13.21824947 rev/d
Perigee alt
1,176.2 km
Apogee alt
1,179.3 km
Semi-major
7,555.9 km
B*
-2.3372e-4
RAAN
248.6347°
Arg perigee
92.6957°
Mean anomaly
267.4407°
Rev number
16,835

§ Raw data

ONEWEB-06551 54677U 22166AM  26144.83691785 -.00000084  00000+0 -23372-3 0  99932 54677  87.9251 248.6347 0002010  92.6957 267.4407 13.21824947168352

JSON: /api/v1/satellites/54677 · /tle

For live sub-satellite position, see the globe view (requires WebGL).

§ Visibility from observer

Set your observer location to see the next 7 days of passes ≥ 10°. The values pass through the URL so the page stays shareable.

No JS? Fill the form by hand. The geolocation button needs JavaScript.